Regional Weather Roundup
Issued by NWS Jackson, KY

Home | Current Version | Previous Version | Text Only | Print | Product List | Glossary On
Versions: 1 2 3 4 5 6 7 8 9 10 11 12 13 14 15 16 17 18 19 20 21 22 23 24 25 26 27 28
000
ASUS43 KJKL 271710
RWRJKL

EAST KENTUCKY HOURLY WEATHER ROUNDUP
NATIONAL WEATHER SERVICE JACKSON KY
100 PM EDT SAT AUG 27 2016

NOTE: "FAIR" INDICATES FEW OR NO CLOUDS BELOW 12,000 FEET WITH
NO SIGNIFICANT WEATHER AND/OR OBSTRUCTIONS TO VISIBILITY.

* THESE REPORTS ARE NOT UNDER NWS QUALITY CONTROL AND MAY NOT
  REPORT WEATHER SUCH AS PRECIPITATION AND FOG.

KYZ079-080-083-085-087-088-110-112-115-119-120-271800
...EASTERN KENTUCKY...

CITY           SKY/WX    TMP DP  RH WIND       PRES   REMARKS
JACKSON        SUNNY     87  72  60 CALM      30.16F HX  93
LONDON         SUNNY     89  69  51 VRB5      30.15F HX  93
SOMERSET*      SUNNY     86  72  62 W5        30.15S HX  92
MONTICELLO*    MOSUNNY  N/A N/A N/A W12       30.15F
WILLIAMSBURG*  SUNNY     88  75  66 SW5       30.15F HX  97
MIDDLESBORO*   SUNNY     90  72  56 S5        30.15F HX  97
HARLAN APT*    SUNNY     88  68  51 CALM      30.17F HX  91
PIKE CO APT*     N/A     88  69  54 S3        30.16F HX  92
BIG SANDY APT* SUNNY     90  72  54 CALM      30.15F HX  97
MOREHEAD APT*  SUNNY     90  73  58 VRB3      30.15S HX  98
ASHLAND*       MOSUNNY   93  75  55 S8        30.10  HX 104
$$

KYZ035-036-041-042-044-050-067-078-099-271800
...CENTRAL KENTUCKY...

CITY           SKY/WX    TMP DP  RH WIND       PRES   REMARKS
MT STERLING*   SUNNY     90  73  58 W3        30.15S HX  98
FLEMING/MASON* SUNNY     92  72  52 SE3       30.13F HX  99
DANVILLE*      SUNNY     90  72  55 SW6       30.14F HX  96
LEXINGTON      SUNNY     90  71  53 SW8       30.13S HX  96
FRANKFORT      SUNNY     91  73  55 VRB5      30.11S HX  99
LOUISVILLE     CLOUDY    89  73  59 W9        30.09F HX  97
LEBANON*         N/A     90  73  58 SW5       30.13S HX  98
GLASGOW*       SUNNY     90  73  57 W3        30.11F HX  97
BOWLING GREEN  PTSUNNY   90  75  61 W7        30.10F HX 100
$$

KYZ091>093-OHZ055-061-077-WVZ005-015-034-035-042-271800
...SOUTHERN OHIO/WEST VIRGINIA...

CITY           SKY/WX    TMP DP  RH WIND       PRES   REMARKS
COVINGTON      MOSUNNY   89  74  60 S10       30.11F HX  98
COLUMBUS       MOSUNNY   87  72  60 SE9       30.13F HX  93
DAYTON         MOSUNNY   87  73  62 S8        30.12F HX  94
WILMINGTON     MOSUNNY   88  73  61 S9        30.13F HX  95
HUNTINGTON     SUNNY     92  73  53 S6        30.12F HX 100
CHARLESTON     MOSUNNY   91  73  55 VRB3      30.13F HX  99
PINEVILLE*     SUNNY     90  60  37 MISG      30.24S
BECKLEY        SUNNY     83  68  60 S10       30.26S
BLUEFIELD      MOSUNNY   80  67  64 VRB7      30.28F
LOGAN CO APT*    N/A     88  73  62 VRB5      30.16F HX  96
$$

VAZ002-007-008-TNZ017-027-036-066-071-271800
...SOUTHWEST VIRGINIA/EAST TENNESSEE...

CITY           SKY/WX    TMP DP  RH WIND       PRES   REMARKS
WISE*          SUNNY     86  54  32 E3        30.26S
JONESVILLE*      N/A     90  68  48 CALM      30.19F HX  93
ABINGDON*      SUNNY     89  66  47 CALM      30.22S HX  91
BRISTOL        MOSUNNY   89  69  51 VRB6      30.17F HX  93
MORRISTOWN*    SUNNY     90  70  51 VRB7      30.15F HX  95
SEVIERVILLE*     N/A     90  70  51 CALM      30.13F HX  95
KNOXVILLE      MOSUNNY   90  68  48 SW6       30.13F HX  94
OAK RIDGE      PTSUNNY   92  71  50 VRB3      30.15F HX  98
CROSSVILLE     MOSUNNY   86  68  54 VRB6      30.20F
NASHVILLE      MOSUNNY   92  74  55 SW3       30.11F HX 101
$$

...KEY TO REMARKS...
VSB - VISIBILITY IN MILES
WCI - WIND CHILL INDEX
HX  - HEAT INDEX

$$




USA.gov is the U.S. government's official web portal to all federal, state and local government web resources and services.